FW3153 Weather Reports


time (UTC)temp
C
wind
direction
speed
KPH
gust
KPH
rain 1hr
cm
rain 24hr
cm
rain mn
cm
humidity
%
barometer
mb
20260506044517 15 3 1.6 3.2 0.00 0.00 0.00 52 1014.4
20260506043518 16 37 1.6 3.2 0.00 0.00 0.00 52 1014.4
20260506042517 16 34 1.6 8.0 0.00 0.00 0.00 51 1014.3
20260506041518 16 3 1.6 4.8 0.00 0.00 0.00 50 1014.3
20260506040518 17 14 3.2 6.4 0.00 0.00 0.00 52 1014.2
20260506035538 17 15 1.6 4.8 0.00 0.00 0.00 51 1014.1
20260506034518 18 23 1.6 4.8 0.00 0.00 0.00 50 1013.9
20260506033518 18 32 3.2 4.8 0.00 0.00 0.00 48 1013.8
20260506032516 19 22 4.8 8.0 0.00 0.00 0.00 47 1013.7
20260506031516 19 14 4.8 9.7 0.00 0.00 0.00 46 1013.6
20260506030519 20 26 4.8 8.0 0.00 0.00 0.00 46 1013.6
20260506025517 20 28 4.8 14.5 0.00 0.00 0.00 45 1013.4
20260506024536 20 31 6.4 20.9 0.00 0.00 0.00 44 1013.3
20260506023519 21 26 4.8 11.3 0.00 0.00 0.00 43 1013.2
20260506022519 21 17 6.4 14.5 0.00 0.00 0.00 42 1013.2
20260506021517 21 11 4.8 11.3 0.00 0.00 0.00 41 1013.1
20260506020516 21 18 6.4 14.5 0.00 0.00 0.00 40 1013.1
20260506015518 21 14 4.8 11.3 0.00 0.00 0.00 42 1013.1
20260506014518 21 19 4.8 12.9 0.00 0.00 0.00 43 1013.0
20260506013519 21 7 6.4 14.5 0.00 0.00 0.00 43 1013.0
20260506012517 21 16 8.0 16.1 0.00 0.00 0.00 43 1012.9
20260506011518 21 14 8.0 14.5 0.00 0.00 0.00 42 1012.8
20260506010518 21 24 8.0 17.7 0.00 0.00 0.00 41 1012.7
20260506005518 22 11 11.3 20.9 0.00 0.00 0.00 40 1012.6
20260506004518 23 46 8.0 17.7 0.00 0.00 0.00 38 1012.6
20260506003518 23 46 6.4 19.3 0.00 0.00 0.00 37 1012.4
20260506002518 23 33 8.0 22.5 0.00 0.00 0.00 36 1012.4
20260506001519 23 41 6.4 12.9 0.00 0.00 0.00 35 1012.3
20260506000518 23 54 6.4 16.1 0.00 0.00 0.00 35 1012.2
20260505235520 23 48 6.4 14.5 0.00 0.00 0.00 35 1012.1
20260505234519 24 48 6.4 16.1 0.00 0.00 0.00 34 1012.2
20260505233516 23 20 8.0 19.3 0.00 0.00 0.00 33 1012.1
20260505232537 23 60 6.4 14.5 0.00 0.00 0.00 34 1012.3
20260505231517 23 85 4.8 14.5 0.00 0.00 0.00 34 1012.2
20260505230537 24 39 3.2 9.7 0.00 0.00 0.00 34 1012.3
20260505225517 24 53 8.0 17.7 0.00 0.00 0.00 33 1012.3
20260505224520 23 48 4.8 14.5 0.00 0.00 0.00 33 1012.4
20260505223520 23 77 6.4 29.0 0.00 0.00 0.00 34 1012.4
20260505222517 23 70 4.8 12.9 0.00 0.00 0.00 34 1012.4
20260505221517 24 87 6.4 17.7 0.00 0.00 0.00 33 1012.4
20260505220518 23 29 6.4 11.3 0.00 0.00 0.00 34 1012.5
20260505215538 24 68 6.4 12.9 0.00 0.00 0.00 33 1012.6
20260505214521 23 51 6.4 14.5 0.00 0.00 0.00 34 1012.5
20260505213518 23 60 4.8 12.9 0.00 0.00 0.00 34 1012.7
20260505212518 23 72 6.4 14.5 0.00 0.00 0.00 35 1012.7
20260505211519 23 49 6.4 14.5 0.00 0.00 0.00 34 1012.7
20260505210519 23 41 8.0 14.5 0.00 0.00 0.00 35 1012.8
20260505205520 23 80 8.0 14.5 0.00 0.00 0.00 35 1012.7
20260505204519 23 51 3.2 9.7 0.00 0.00 0.00 34 1012.7
20260505203520 22 32 9.7 20.9 0.00 0.00 0.00 36 1012.7
20260505202517 23 34 8.0 16.1 0.00 0.00 0.00 36 1012.8
20260505201516 23 78 4.8 14.5 0.00 0.00 0.00 37 1012.9
20260505200520 22 81 4.8 17.7 0.00 0.00 0.00 38 1013.0
20260505195520 22 44 8.0 19.3 0.00 0.00 0.00 39 1013.0
20260505194517 21 45 6.4 12.9 0.00 0.00 0.00 40 1013.1
20260505193538 21 35 8.0 19.3 0.00 0.00 0.00 41 1013.0
20260505192518 21 29 9.7 19.3 0.00 0.00 0.00 40 1013.1
20260505191538 21 67 6.4 16.1 0.00 0.00 0.00 40 1013.1
20260505190518 21 48 4.8 14.5 0.00 0.00 0.00 40 1013.1
20260505185518 21 84 3.2 14.5 0.00 0.00 0.00 40 1013.1
20260505184538 21 41 6.4 12.9 0.00 0.00 0.00 39 1013.2
20260505183518 20 49 4.8 14.5 0.00 0.00 0.00 40 1013.2
20260505182518 20 37 3.2 12.9 0.00 0.00 0.00 39 1013.1
20260505181519 21 224 4.8 9.7 0.00 0.00 0.00 42 1013.1
20260505180539 20 227 3.2 11.3 0.00 0.00 0.00 43 1013.2
20260505175515 20 144 3.2 11.3 0.00 0.00 0.00 43 1013.2
20260505174519 18 85 3.2 11.3 0.00 0.00 0.00 44 1013.2
20260505173539 18 216 4.8 14.5 0.00 0.00 0.00 44 1013.1
20260505172519 17 219 3.2 12.9 0.00 0.00 0.00 47 1013.1
20260505171517 17 17 4.8 12.9 0.00 0.00 0.00 47 1013.2
20260505170536 17 52 4.8 9.7 0.00 0.00 0.00 46 1013.2
20260505165521 17 73 4.8 11.3 0.00 0.00 0.00 47 1013.2
20260505164517 16 13 3.2 9.7 0.00 0.00 0.00 48 1013.3
20260505163517 16 75 3.2 12.9 0.00 0.00 0.00 51 1013.3
20260505162518 15 237 1.6 6.4 0.00 0.00 0.00 55 1013.2
20260505161518 14 230 3.2 9.7 0.00 0.00 0.00 58 1013.2
20260505160517 13 225 3.2 9.7 0.00 0.00 0.00 59 1013.2
20260505152519 11 223 1.6 6.4 0.00 0.00 0.00 69 1013.2
20260505151535 10 226 1.6 6.4 0.00 0.00 0.00 72 1013.1
20260505150518 10 256 1.6 6.4 0.00 0.00 0.00 72 1013.1
20260505140519 7 260 3.2 8.0 0.00 0.00 0.00 76 1012.3
20260505124519 6 347 3.2 6.4 0.00 0.00 0.00 76 1011.9
20260505123519 6 328 1.6 6.4 0.00 0.00 0.00 75 1011.8
20260505122539 6 304 1.6 4.8 0.00 0.00 0.00 75 1011.7
20260505121520 6 352 0.0 3.2 0.00 0.00 0.00 75 1011.7
20260505120517 6 326 1.6 3.2 0.00 0.00 0.00 74 1011.6
20260505115519 6 288 1.6 3.2 0.00 0.00 0.00 73 1011.6
20260505114519 7 351 1.6 4.8 0.00 0.00 0.00 73 1011.6
20260505113516 7 304 1.6 6.4 0.00 0.00 0.00 72 1011.6
20260505112517 6 298 1.6 6.4 0.00 0.00 0.00 73 1011.5
20260505111518 6 8 1.6 4.8 0.00 0.00 0.00 75 1011.5
20260505110537 7 4 1.6 3.2 0.00 0.00 0.00 74 1011.5
20260505101518 8 350 1.6 4.8 0.00 0.00 0.00 76 1011.4
20260505100518 8 16 1.6 6.4 0.00 0.00 0.00 77 1011.4
20260505095518 8 355 0.0 3.2 0.00 0.00 0.00 77 1011.3
20260505094519 8 327 1.6 4.8 0.00 0.00 0.00 76 1011.3
20260505093519 8 356 0.0 3.2 0.00 0.00 0.00 76 1011.4
20260505092539 7 342 0.0 3.2 0.00 0.00 0.00 77 1011.4
20260505091519 7 13 0.0 4.8 0.00 0.00 0.00 76 1011.4
20260505090516 7 3 1.6 4.8 0.00 0.00 0.00 74 1011.3
20260505085519 7 10 1.6 6.4 0.00 0.00 0.00 73 1011.3
20260505084519 7 191 0.0 1.6 0.00 0.00 0.00 74 1011.3
20260505083539 7 28 1.6 6.4 0.00 0.00 0.00 73 1011.4
20260505082516 7 15 3.2 6.4 0.00 0.00 0.00 70 1011.3
20260505081516 8 348 0.0 1.6 0.00 0.00 0.00 68 1011.3
20260505080520 9 340 0.0 1.6 0.00 0.00 0.00 67 1011.3
20260505075520 9 1 3.2 6.4 0.00 0.00 0.00 68 1011.3
20260505074518 10 15 3.2 6.4 0.00 0.00 0.00 68 1011.4
20260505073518 10 344 0.0 3.2 0.00 0.00 0.00 67 1011.4
20260505072518 10 20 1.6 9.7 0.00 0.00 0.00 65 1011.4
20260505071518 11 350 0.0 1.6 0.00 0.00 0.00 62 1011.3
20260505070519 11 10 3.2 8.0 0.00 0.00 0.00 60 1011.1
20260505065518 11 221 1.6 6.4 0.00 0.00 0.00 57 1011.0
20260505064519 11 218 1.6 4.8 0.00 0.00 0.00 55 1010.8
20260505063518 11 309 1.6 4.8 0.00 0.00 0.00 51 1010.8
20260505062519 12 284 3.2 6.4 0.00 0.00 0.00 51 1010.7
20260505061540 12 284 1.6 3.2 0.00 0.00 0.00 50 1010.6
20260505060519 13 319 0.0 4.8 0.00 0.00 0.00 47 1010.6
20260505055519 15 302 1.6 4.8 0.00 0.00 0.00 43 1010.6
20260505054516 15 352 1.6 8.0 0.00 0.00 0.00 42 1010.5
20260505053520 15 16 1.6 11.3 0.00 0.00 0.00 42 1010.6
20260505052600 15 82 3.2 6.4 0.00 0.00 0.00 41 1010.6
20260505051517 16 75 1.6 6.4 0.00 0.00 0.00 41 1010.6
20260505050517 16 73 1.6 4.8 0.00 0.00 0.00 41 1010.6